{"data":{"norad_id":66648,"epoch":"2026-09-20T14:22:43.182624Z","epoch_age_seconds":112369,"freshness":"FRESH","line1":"1 66648U 25273B   26263.59911091  .00000032  00000+0  15751-3 0  9999","line2":"2 66648  82.4996 111.2620 0011074 342.7362  17.3340 12.42882782 37151","mean_motion":12.42882782,"eccentricity":0.0011074,"inclination_deg":82.4996,"raan_deg":111.262,"arg_perigee_deg":342.7362,"mean_anomaly_deg":17.334,"bstar":0.00015751,"rev_number":3715,"period_min":115.85967887356,"perigee_km":1485.6882858775,"apogee_km":1503.1243948678,"semimajor_km":7872.5433403726,"source":"CELESTRAK","updated_at":"2026-09-21T09:00:16.114296Z"}}